Location: Newark
(43.0000°N, 1.6781°W)
Time: 08:37:15
(UTC+00:00)

AO-7 - Pass Details

Date: 10 December 2022
Orbit: 1440 x 1459 km, 101.9° (Epoch: 28 January)

Event Time Altitude Azimuth Distance (km) Brightness Sun altitude
Rises 03:36:34 0° 27° (NNE) 4,546 ? -41.2°
Reaches altitude 10° 03:39:56 10° 39° (NE) 3,566 ? -40.6°
Maximum altitude 03:46:49 28° 95° (E) 2,444 ? -39.3°
Drops below altitude 10° 03:53:39 10° 151° (SSE) 3,560 ? -38.1°
Sets 03:56:58 0° 163° (SSE) 4,537 ? -37.5°
